Location: Heidgraben
(53.7081°N, 9.6576°E)
Time: 04:24:07
(UTC+00:00)

Aureole 2 Rocket - Pass Details

Date: 05 July 2020
Orbit: 304 x 429 km, 73.9° (Epoch: 06 August)

Event Time Altitude Azimuth Distance (km) Brightness Sun altitude
Rises 22:46:01 0° 328° (NNW) 2,109 7.2 -13.1°
Maximum altitude 22:50:39 44° 249° (WSW) 500 2.5 -13.2°
Enters shadow 22:51:48 27° 194° (SSW) 715 2.9 -13.3°
